Time,TemperatureF,DewpointF,PressureIn,WindDirection,WindDirectionDegrees,WindSpeedMPH,WindSpeedGustMPH,Humidity,HourlyPrecipIn,Conditions,Clouds,dailyrainin,SoftwareType,DateUTC
2013-09-10 00:04:00,59.0,28.4,29.96,West,270,3.0,6.0,31,0.00,,CLR,0.00,VWS V14.01,2013-09-10 06:04:00,
2013-09-10 00:09:00,60.0,38.0,29.96,WNW,292,3.0,8.0,44,0.00,,CLR,0.00,VWS V14.01,2013-09-10 06:09:00,
2013-09-10 00:14:00,60.0,41.8,29.96,WNW,292,7.0,10.0,51,0.00,,CLR,0.00,VWS V14.01,2013-09-10 06:14:00,
2013-09-10 00:19:00,60.0,43.8,29.96,West,270,1.0,10.0,55,0.00,,CLR,0.00,VWS V14.01,2013-09-10 06:19:00,
2013-09-10 00:24:00,60.0,43.3,29.95,WSW,247,1.0,10.0,54,0.00,,CLR,0.00,VWS V14.01,2013-09-10 06:24:00,
2013-09-10 00:29:00,60.0,42.8,29.95,WSW,247,2.0,7.0,53,0.00,,CLR,0.00,VWS V14.01,2013-09-10 06:29:00,
2013-09-10 00:35:00,60.0,44.3,29.96,WSW,247,1.0,7.0,56,0.00,,CLR,0.00,VWS V14.01,2013-09-10 06:35:00,
2013-09-10 00:40:00,60.0,46.1,29.96,West,270,2.0,7.0,60,0.00,,CLR,0.00,VWS V14.01,2013-09-10 06:40:00,
2013-09-10 00:45:00,60.0,49.8,29.96,West,270,3.0,7.0,69,0.00,,CLR,0.00,VWS V14.01,2013-09-10 06:45:00,
2013-09-10 00:50:00,60.0,50.6,29.96,WNW,292,0.0,7.0,71,0.00,,CLR,0.00,VWS V14.01,2013-09-10 06:50:00,
2013-09-10 00:55:00,60.0,50.2,29.97,WNW,292,0.0,7.0,70,0.00,,CLR,0.00,VWS V14.01,2013-09-10 06:55:00,
2013-09-10 01:00:00,59.0,47.7,29.97,WNW,292,2.0,2.0,66,0.00,,CLR,0.00,VWS V14.01,2013-09-10 07:00:00,
2013-09-10 01:05:00,59.0,47.7,29.98,West,270,6.0,7.0,66,0.00,,CLR,0.00,VWS V14.01,2013-09-10 07:05:00,
2013-09-10 01:10:00,59.0,45.6,29.98,NW,315,3.0,7.0,61,0.00,,CLR,0.00,VWS V14.01,2013-09-10 07:10:00,
2013-09-10 01:15:00,59.0,44.3,29.98,WNW,292,6.0,7.0,58,0.00,,CLR,0.00,VWS V14.01,2013-09-10 07:15:00,
2013-09-10 02:10:00,60.0,56.4,29.98,WNW,292,4.0,7.0,88,0.00,,CLR,0.00,VWS V14.01,2013-09-10 08:10:00,
2013-09-10 02:15:00,60.0,56.8,29.99,West,270,7.0,9.0,89,0.00,,CLR,0.00,VWS V14.01,2013-09-10 08:15:00,
2013-09-10 02:20:00,60.0,56.1,29.99,WSW,247,1.0,9.0,87,0.00,,CLR,0.00,VWS V14.01,2013-09-10 08:20:00,
2013-09-10 02:25:00,59.0,55.1,29.99,NW,315,5.0,9.0,87,0.00,,CLR,0.00,VWS V14.01,2013-09-10 08:25:00,
2013-09-10 02:30:00,59.0,54.5,29.99,West,270,3.0,6.0,85,0.00,,CLR,0.00,VWS V14.01,2013-09-10 08:30:00,
2013-09-10 02:35:00,59.0,55.5,29.99,West,270,8.0,9.0,88,0.00,,CLR,0.00,VWS V14.01,2013-09-10 08:35:00,
2013-09-10 02:40:00,59.0,55.8,29.99,WNW,292,7.0,10.0,89,0.00,,CLR,0.00,VWS V14.01,2013-09-10 08:40:00,
2013-09-10 02:45:00,60.0,57.1,29.99,WNW,292,8.0,12.0,90,0.00,,CLR,0.00,VWS V14.01,2013-09-10 08:45:00,
2013-09-10 02:50:00,59.0,55.1,29.99,WNW,292,7.0,12.0,87,0.00,,CLR,0.00,VWS V14.01,2013-09-10 08:50:00,
2013-09-10 02:55:00,58.0,52.9,30.00,WNW,292,6.0,12.0,83,0.00,,CLR,0.00,VWS V14.01,2013-09-10 08:55:00,
2013-09-10 03:00:00,59.0,55.5,30.00,WNW,292,7.0,8.0,88,0.00,,CLR,0.00,VWS V14.01,2013-09-10 09:00:00,
2013-09-10 03:06:00,58.0,53.8,30.00,NW,315,2.0,8.0,86,0.00,,CLR,0.00,VWS V14.01,2013-09-10 09:06:00,
2013-09-10 03:11:00,58.0,54.8,30.00,West,270,7.0,8.0,89,0.00,,CLR,0.00,VWS V14.01,2013-09-10 09:11:00,
2013-09-10 03:16:00,59.0,55.8,30.00,WNW,292,6.0,9.0,89,0.00,,CLR,0.00,VWS V14.01,2013-09-10 09:16:00,
2013-09-10 03:21:00,59.0,55.5,30.00,WNW,292,8.0,9.0,88,0.00,,CLR,0.00,VWS V14.01,2013-09-10 09:21:00,
2013-09-10 03:26:00,59.0,55.8,29.99,NW,315,6.0,9.0,89,0.00,,CLR,0.00,VWS V14.01,2013-09-10 09:26:00,
2013-09-10 03:31:00,58.0,54.8,29.99,West,270,3.0,3.0,89,0.00,,CLR,0.00,VWS V14.01,2013-09-10 09:31:00,
2013-09-10 03:36:00,58.0,54.8,30.01,West,270,2.0,7.0,89,0.00,,CLR,0.00,VWS V14.01,2013-09-10 09:36:00,
2013-09-10 03:41:00,58.0,54.8,30.01,WNW,292,1.0,7.0,89,0.00,,CLR,0.00,VWS V14.01,2013-09-10 09:41:00,
2013-09-10 03:46:00,58.0,54.5,30.00,WNW,292,4.0,7.0,88,0.00,,CLR,0.00,VWS V14.01,2013-09-10 09:46:00,
2013-09-10 03:51:00,58.0,54.2,30.00,WNW,292,3.0,7.0,87,0.00,,CLR,0.00,VWS V14.01,2013-09-10 09:51:00,
2013-09-10 03:56:00,59.0,54.5,30.00,West,270,3.0,7.0,85,0.00,,CLR,0.00,VWS V14.01,2013-09-10 09:56:00,
2013-09-10 04:01:00,59.0,53.5,30.00,WNW,292,5.0,8.0,82,0.00,,CLR,0.00,VWS V14.01,2013-09-10 10:01:00,
2013-09-10 04:06:00,60.0,53.5,29.99,WNW,292,6.0,8.0,79,0.00,,CLR,0.00,VWS V14.01,2013-09-10 10:06:00,
2013-09-10 04:11:00,61.0,52.7,29.99,WNW,292,7.0,8.0,74,0.00,,CLR,0.00,VWS V14.01,2013-09-10 10:11:00,
2013-09-10 04:16:00,60.0,52.1,29.99,WNW,292,4.0,8.0,75,0.00,,CLR,0.00,VWS V14.01,2013-09-10 10:16:00,
2013-09-10 04:21:00,61.0,51.9,29.99,WNW,292,3.0,8.0,72,0.00,,CLR,0.00,VWS V14.01,2013-09-10 10:21:00,
2013-09-10 04:26:00,61.0,51.2,29.99,West,270,2.0,8.0,70,0.00,,CLR,0.00,VWS V14.01,2013-09-10 10:26:00,
2013-09-10 04:31:00,60.0,52.1,29.99,NW,315,6.0,6.0,75,0.00,,CLR,0.00,VWS V14.01,2013-09-10 10:31:00,
2013-09-10 04:36:00,60.0,52.4,29.99,WNW,292,3.0,7.0,76,0.00,,CLR,0.00,VWS V14.01,2013-09-10 10:36:00,
2013-09-10 04:41:00,60.0,53.1,29.99,NW,315,6.0,7.0,78,0.00,,CLR,0.00,VWS V14.01,2013-09-10 10:41:00,
2013-09-10 04:46:00,59.0,51.8,30.00,WNW,292,2.0,7.0,77,0.00,,CLR,0.00,VWS V14.01,2013-09-10 10:46:00,
2013-09-10 04:51:00,59.0,52.2,30.00,WNW,292,5.0,7.0,78,0.00,,CLR,0.00,VWS V14.01,2013-09-10 10:51:00,
2013-09-10 04:56:00,58.0,51.9,30.01,WNW,292,5.0,7.0,80,0.00,,CLR,0.00,VWS V14.01,2013-09-10 10:56:00,
2013-09-10 05:01:00,58.0,52.5,30.01,NW,315,8.0,9.0,82,0.00,,CLR,0.00,VWS V14.01,2013-09-10 11:01:00,
2013-09-10 05:07:00,57.0,53.5,30.01,NW,315,7.0,9.0,88,0.00,,CLR,0.00,VWS V14.01,2013-09-10 11:07:00,
2013-09-10 05:12:00,57.0,53.5,30.02,WNW,292,9.0,9.0,88,0.00,,CLR,0.00,VWS V14.01,2013-09-10 11:12:00,
2013-09-10 05:17:00,57.0,53.5,30.02,WNW,292,4.0,10.0,88,0.00,,CLR,0.00,VWS V14.01,2013-09-10 11:17:00,
2013-09-10 05:22:00,57.0,53.2,30.02,NW,315,7.0,10.0,87,0.00,,CLR,0.00,VWS V14.01,2013-09-10 11:22:00,
2013-09-10 05:27:00,57.0,53.2,30.02,WNW,292,7.0,10.0,87,0.00,,CLR,0.00,VWS V14.01,2013-09-10 11:27:00,
2013-09-10 05:32:00,58.0,51.5,30.02,WNW,292,5.0,7.0,79,0.00,,CLR,0.00,VWS V14.01,2013-09-10 11:32:00,
2013-09-10 05:37:00,58.0,51.5,30.02,WNW,292,4.0,7.0,79,0.00,,CLR,0.00,VWS V14.01,2013-09-10 11:37:00,
2013-09-10 05:42:00,58.0,52.2,30.02,NW,315,5.0,7.0,81,0.01,,CLR,0.01,VWS V14.01,2013-09-10 11:42:00,
2013-09-10 05:47:00,57.0,52.9,30.02,NW,315,7.0,8.0,86,0.01,,CLR,0.01,VWS V14.01,2013-09-10 11:47:00,
2013-09-10 05:52:00,57.0,52.2,30.03,NW,315,9.0,10.0,84,0.01,,CLR,0.01,VWS V14.01,2013-09-10 11:52:00,
2013-09-10 05:57:00,58.0,52.5,30.03,NW,315,7.0,10.0,82,0.01,,CLR,0.01,VWS V14.01,2013-09-10 11:57:00,
2013-09-10 06:00:00,58.0,52.9,30.03,NW,315,9.0,10.0,83,0.01,,CLR,0.01,VWS V14.01,2013-09-10 12:00:00,
2013-09-10 06:02:00,58.0,52.5,30.02,NW,315,8.0,9.0,82,0.01,,CLR,0.01,VWS V14.01,2013-09-10 12:02:00,
2013-09-10 06:07:00,57.0,52.2,30.02,NW,315,7.0,10.0,84,0.01,,CLR,0.01,VWS V14.01,2013-09-10 12:07:00,
2013-09-10 06:12:00,57.0,52.2,30.03,WNW,292,6.0,10.0,84,0.01,,CLR,0.01,VWS V14.01,2013-09-10 12:12:00,
2013-09-10 06:30:00,58.0,51.5,30.03,WNW,292,5.0,10.0,79,0.01,,CLR,0.01,VWS V14.01,2013-09-10 12:30:00,
2013-09-10 07:00:00,60.0,51.7,30.03,West,270,8.0,9.0,74,0.01,,CLR,0.01,VWS V14.01,2013-09-10 13:00:00,
2013-09-10 07:19:00,60.0,51.7,30.02,WNW,292,13.0,14.0,74,0.00,,CLR,0.01,VWS V14.01,2013-09-10 13:19:00,
2013-09-10 07:24:00,60.0,52.8,30.03,WNW,292,9.0,14.0,77,0.00,,CLR,0.01,VWS V14.01,2013-09-10 13:24:00,
2013-09-10 07:29:00,59.0,52.8,30.03,WNW,292,9.0,14.0,80,0.00,,CLR,0.01,VWS V14.01,2013-09-10 13:29:00,
2013-09-10 07:30:00,59.0,52.8,30.03,NW,315,8.0,14.0,80,0.00,,CLR,0.01,VWS V14.01,2013-09-10 13:30:00,
2013-09-10 08:00:00,63.0,53.8,30.01,WNW,292,10.0,13.0,72,0.00,,CLR,0.01,VWS V14.01,2013-09-10 14:00:00,
2013-09-10 08:30:00,65.0,53.8,30.00,NW,315,12.0,18.0,67,0.00,,CLR,0.01,VWS V14.01,2013-09-10 14:30:00,
2013-09-10 09:00:00,67.0,53.6,29.99,NW,315,15.0,21.0,62,0.00,,CLR,0.01,VWS V14.01,2013-09-10 15:00:00,
2013-09-10 09:30:00,67.0,53.6,30.00,NNW,337,18.0,23.0,62,0.00,,CLR,0.01,VWS V14.01,2013-09-10 15:30:00,
2013-09-10 10:00:00,68.0,54.1,30.02,NW,315,10.0,22.0,61,0.00,,CLR,0.01,VWS V14.01,2013-09-10 16:00:00,
2013-09-10 10:30:00,68.0,54.1,30.02,NNW,337,11.0,18.0,61,0.00,,CLR,0.01,VWS V14.01,2013-09-10 16:30:00,
2013-09-10 11:30:00,71.0,55.5,30.02,North,360,10.0,17.0,58,0.00,,CLR,0.01,VWS V14.01,2013-09-10 17:30:00,
2013-09-10 12:00:00,70.0,55.5,30.01,NNW,337,10.0,17.0,60,0.00,,CLR,0.01,VWS V14.01,2013-09-10 18:00:00,
2013-09-10 12:30:00,72.0,54.5,30.00,North,360,10.0,17.0,54,0.00,,CLR,0.01,VWS V14.01,2013-09-10 18:30:00,
2013-09-10 13:00:00,75.0,55.7,29.97,NNE,22,10.0,20.0,51,0.00,,CLR,0.01,VWS V14.01,2013-09-10 19:00:00,
2013-09-10 13:30:00,73.0,54.9,29.99,NE,45,5.0,15.0,53,0.00,,CLR,0.01,VWS V14.01,2013-09-10 19:30:00,
2013-09-10 14:00:00,73.0,54.3,29.99,East,90,5.0,10.0,52,0.00,,CLR,0.01,VWS V14.01,2013-09-10 20:00:00,
2013-09-10 14:30:00,75.0,55.7,29.98,NW,315,0.0,9.0,51,0.00,,CLR,0.01,VWS V14.01,2013-09-10 20:30:00,
2013-09-10 15:00:00,73.0,54.9,29.97,East,90,2.0,9.0,53,0.00,,CLR,0.01,VWS V14.01,2013-09-10 21:00:00,
2013-09-10 15:30:00,77.0,55.8,29.96,South,180,0.0,4.0,48,0.00,,CLR,0.01,VWS V14.01,2013-09-10 21:30:00,
2013-09-10 16:00:00,74.0,55.3,29.97,SW,225,4.0,10.0,52,0.00,,CLR,0.01,VWS V14.01,2013-09-10 22:00:00,
2013-09-10 16:30:00,74.0,55.3,29.99,SW,225,4.0,12.0,52,0.00,,CLR,0.01,VWS V14.01,2013-09-10 22:30:00,
2013-09-10 17:00:00,73.0,54.9,29.98,SE,135,9.0,13.0,53,0.00,,CLR,0.01,VWS V14.01,2013-09-10 23:00:00,
2013-09-10 17:30:00,73.0,54.9,29.98,South,180,6.0,9.0,53,0.00,,CLR,0.01,VWS V14.01,2013-09-10 23:30:00,
2013-09-10 18:00:00,72.0,55.0,29.99,SSE,157,8.0,12.0,55,0.00,,CLR,0.01,VWS V14.01,2013-09-11 00:00:00,
2013-09-10 18:30:00,70.0,55.5,30.01,SSE,157,4.0,9.0,60,0.00,,CLR,0.01,VWS V14.01,2013-09-11 00:30:00,
2013-09-10 19:30:00,66.0,56.0,30.04,SSW,202,3.0,3.0,70,0.00,,CLR,0.01,VWS V14.01,2013-09-11 01:30:00,
2013-09-10 20:00:00,64.0,57.7,30.07,SSW,202,6.0,7.0,80,0.00,,CLR,0.01,VWS V14.01,2013-09-11 02:00:00,
2013-09-10 20:30:00,63.0,59.1,30.08,SW,225,4.0,7.0,87,0.00,,CLR,0.01,VWS V14.01,2013-09-11 02:30:00,
2013-09-10 21:00:00,62.0,57.8,30.09,SW,225,6.0,7.0,86,0.00,,CLR,0.01,VWS V14.01,2013-09-11 03:00:00,
2013-09-10 21:30:00,61.0,57.4,30.10,SW,225,5.0,8.0,88,0.00,,CLR,0.01,VWS V14.01,2013-09-11 03:30:00,
2013-09-10 22:00:00,61.0,57.4,30.11,SW,225,6.0,8.0,88,0.00,,CLR,0.01,VWS V14.01,2013-09-11 04:00:00,
2013-09-10 22:30:00,61.0,57.7,30.11,SW,225,5.0,9.0,89,0.00,,CLR,0.01,VWS V14.01,2013-09-11 04:30:00,
2013-09-10 23:00:00,60.0,56.8,30.11,SW,225,7.0,9.0,89,0.00,,CLR,0.01,VWS V14.01,2013-09-11 05:00:00,
2013-09-10 23:30:00,61.0,57.4,30.11,SW,225,9.0,12.0,88,0.00,,CLR,0.01,VWS V14.01,2013-09-11 05:30:00,